| time (UTC) | temp F | wind direction | speed MPH | gust MPH | rain 1hr in | rain 24hr in | rain mn in | humidity % | barometer mb |
| 20260505024516 | 68 | 0.0 | 0.0 | 0.00 | 0.00 | 0.00 | 60 | 1008.2 | |
| 20260505023516 | 68 | 0.0 | 0.0 | 0.00 | 0.00 | 0.00 | 61 | 1008.1 | |
| 20260505022516 | 67 | 0.0 | 0.0 | 0.00 | 0.00 | 0.00 | 62 | 1007.9 | |
| 20260505021617 | 67 | 0.0 | 0.0 | 0.00 | 0.00 | 0.00 | 62 | 1007.8 | |
| 20260505020517 | 67 | 0.0 | 0.0 | 0.00 | 0.00 | 0.00 | 62 | 1007.6 | |
| 20260505015516 | 67 | 0.0 | 0.0 | 0.00 | 0.00 | 0.00 | 62 | 1007.3 | |
| 20260505014536 | 67 | 0.0 | 0.0 | 0.00 | 0.00 | 0.00 | 62 | 1007.2 | |
| 20260505013516 | 68 | 0.0 | 0.0 | 0.00 | 0.00 | 0.00 | 61 | 1006.9 | |
| 20260505012516 | 68 | 0.0 | 0.0 | 0.00 | 0.00 | 0.00 | 60 | 1006.7 | |
| 20260505011517 | 69 | 0.0 | 0.0 | 0.00 | 0.00 | 0.00 | 59 | 1006.8 | |
| 20260505010516 | 69 | 0.0 | 0.0 | 0.00 | 0.00 | 0.00 | 58 | 1006.6 | |
| 20260505005516 | 70 | 0.0 | 0.0 | 0.00 | 0.00 | 0.00 | 57 | 1006.5 | |
| 20260505004516 | 70 | 0.0 | 0.0 | 0.00 | 0.00 | 0.00 | 57 | 1006.6 | |
| 20260505003516 | 70 | 0.0 | 0.0 | 0.00 | 0.00 | 0.00 | 56 | 1006.6 | |
| 20260505002516 | 71 | 0.0 | 0.0 | 0.00 | 0.00 | 0.00 | 56 | 1006.7 | |
| 20260505001516 | 71 | 0.0 | 0.0 | 0.00 | 0.00 | 0.00 | 55 | 1006.6 | |
| 20260505000536 | 71 | 0.0 | 0.0 | 0.00 | 0.00 | 0.00 | 56 | 1006.7 | |
| 20260504235516 | 72 | 0.0 | 0.0 | 0.00 | 0.00 | 0.00 | 56 | 1006.8 | |
| 20260504234536 | 72 | 0.0 | 0.0 | 0.00 | 0.00 | 0.00 | 55 | 1006.9 | |
| 20260504233616 | 73 | 0.0 | 0.0 | 0.00 | 0.00 | 0.00 | 55 | 1007.1 | |
| 20260504232516 | 73 | 0.0 | 0.0 | 0.00 | 0.00 | 0.00 | 54 | 1007.3 | |
| 20260504231516 | 74 | 0.0 | 0.0 | 0.00 | 0.00 | 0.00 | 54 | 1007.3 | |
| 20260504230516 | 74 | 0.0 | 1.0 | 0.00 | 0.00 | 0.00 | 53 | 1007.5 | |
| 20260504225516 | 74 | 0.0 | 0.0 | 0.00 | 0.00 | 0.00 | 53 | 1007.7 | |
| 20260504224516 | 74 | 0.0 | 0.0 | 0.00 | 0.00 | 0.00 | 52 | 1007.8 | |
| 20260504223516 | 74 | 0.0 | 0.0 | 0.00 | 0.00 | 0.00 | 52 | 1007.8 | |
| 20260504222516 | 74 | 0.0 | 0.0 | 0.00 | 0.00 | 0.00 | 49 | 1007.8 | |
| 20260504221516 | 74 | 0.0 | 0.0 | 0.00 | 0.00 | 0.00 | 50 | 1007.8 | |
| 20260504220516 | 74 | 0.0 | 0.0 | 0.00 | 0.00 | 0.00 | 50 | 1007.9 | |
| 20260504215516 | 74 | 0.0 | 0.0 | 0.00 | 0.00 | 0.00 | 54 | 1007.8 | |
| 20260504214536 | 74 | 0.0 | 0.0 | 0.00 | 0.00 | 0.00 | 58 | 1007.8 | |
| 20260504213516 | 74 | 0.0 | 0.0 | 0.00 | 0.00 | 0.00 | 55 | 1007.7 | |
| 20260504212516 | 73 | 0.0 | 0.0 | 0.00 | 0.00 | 0.00 | 56 | 1007.9 | |
| 20260504211516 | 72 | 0.0 | 0.0 | 0.00 | 0.00 | 0.00 | 57 | 1007.5 | |
| 20260504210516 | 72 | 0.0 | 0.0 | 0.00 | 0.00 | 0.00 | 57 | 1008.0 | |
| 20260504205516 | 72 | 0.0 | 0.0 | 0.00 | 0.00 | 0.00 | 58 | 1008.3 | |
| 20260504204516 | 73 | 0.0 | 0.0 | 0.00 | 0.00 | 0.00 | 55 | 1009.0 | |
| 20260504203516 | 72 | 0.0 | 0.0 | 0.00 | 0.00 | 0.00 | 59 | 1009.1 | |
| 20260504202516 | 72 | 0.0 | 0.0 | 0.00 | 0.00 | 0.00 | 58 | 1009.3 | |
| 20260504201536 | 73 | 0.0 | 0.0 | 0.00 | 0.00 | 0.00 | 60 | 1009.3 | |
| 20260504200516 | 71 | 0.0 | 0.0 | 0.00 | 0.00 | 0.00 | 64 | 1009.3 | |
| 20260504195516 | 70 | 0.0 | 0.0 | 0.00 | 0.00 | 0.00 | 66 | 1009.3 | |
| 20260504194516 | 68 | 0.0 | 0.0 | 0.00 | 0.00 | 0.00 | 67 | 1009.4 | |
| 20260504193516 | 66 | 0.0 | 0.0 | 0.00 | 0.00 | 0.00 | 65 | 1009.3 | |
| 20260504192516 | 65 | 0.0 | 0.0 | 0.00 | 0.00 | 0.00 | 64 | 1009.6 | |
| 20260504191536 | 65 | 0.0 | 0.0 | 0.00 | 0.00 | 0.00 | 61 | 1009.6 | |
| 20260504190516 | 64 | 0.0 | 0.0 | 0.00 | 0.00 | 0.00 | 63 | 1009.6 | |
| 20260504185516 | 64 | 0.0 | 0.0 | 0.00 | 0.00 | 0.00 | 64 | 1009.8 | |
| 20260504184516 | 64 | 0.0 | 0.0 | 0.00 | 0.00 | 0.00 | 66 | 1009.7 | |
| 20260504183516 | 64 | 0.0 | 0.0 | 0.00 | 0.00 | 0.00 | 66 | 1009.4 | |
| 20260504182516 | 65 | 0.0 | 0.0 | 0.00 | 0.00 | 0.00 | 67 | 1009.8 | |
| 20260504181516 | 65 | 0.0 | 0.0 | 0.00 | 0.00 | 0.00 | 66 | 1010.1 | |
| 20260504180516 | 65 | 0.0 | 0.0 | 0.00 | 0.00 | 0.00 | 66 | 1009.8 | |
| 20260504175516 | 66 | 0.0 | 0.0 | 0.00 | 0.00 | 0.00 | 67 | 1009.9 | |
| 20260504174536 | 66 | 0.0 | 0.0 | 0.00 | 0.00 | 0.00 | 66 | 1010.2 | |
| 20260504173516 | 67 | 0.0 | 0.0 | 0.00 | 0.00 | 0.00 | 66 | 1009.7 | |
| 20260504172516 | 67 | 0.0 | 0.0 | 0.00 | 0.00 | 0.00 | 66 | 1009.9 | |
| 20260504171536 | 68 | 0.0 | 1.0 | 0.00 | 0.00 | 0.00 | 65 | 1009.7 | |
| 20260504170516 | 69 | 0.0 | 0.0 | 0.00 | 0.00 | 0.00 | 64 | 1009.6 | |
| 20260504150516 | 65 | 0.0 | 0.0 | 0.00 | 0.00 | 0.00 | 67 | 1010.3 | |
| 20260504140535 | 61 | 0.0 | 0.0 | 0.00 | 0.00 | 0.00 | 68 | 1010.3 | |
| 20260504130515 | 57 | 0.0 | 0.0 | 0.00 | 0.00 | 0.00 | 64 | 1010.2 | |
| 20260504110535 | 54 | 0.0 | 0.0 | 0.00 | 0.00 | 0.00 | 69 | 1010.3 | |
| 20260504100515 | 53 | 0.0 | 0.0 | 0.00 | 0.00 | 0.00 | 69 | 1010.6 | |
| 20260504081555 | 54 | 0.0 | 0.0 | 0.00 | 0.00 | 0.00 | 68 | 1011.2 | |
| 20260504080517 | 54 | 0.0 | 0.0 | 0.00 | 0.00 | 0.00 | 68 | 1011.2 | |
| 20260504050517 | 53 | 0.0 | 0.0 | 0.00 | 0.00 | 0.00 | 68 | 1013.3 | |
| 20260504045517 | 53 | 0.0 | 0.0 | 0.00 | 0.00 | 0.00 | 68 | 1013.2 | |
| 20260504044517 | 54 | 0.0 | 0.0 | 0.00 | 0.00 | 0.00 | 68 | 1013.2 | |
| 20260504043537 | 54 | 0.0 | 0.0 | 0.00 | 0.00 | 0.00 | 67 | 1013.4 | |
| 20260504042517 | 54 | 0.0 | 0.0 | 0.00 | 0.00 | 0.00 | 67 | 1013.3 | |
| 20260504041517 | 54 | 0.0 | 0.0 | 0.00 | 0.00 | 0.00 | 67 | 1013.5 | |
| 20260504040517 | 54 | 0.0 | 0.0 | 0.00 | 0.00 | 0.00 | 67 | 1013.6 | |
| 20260504035516 | 54 | 0.0 | 0.0 | 0.00 | 0.00 | 0.00 | 67 | 1013.7 | |
| 20260504034516 | 54 | 0.0 | 0.0 | 0.00 | 0.00 | 0.00 | 67 | 1013.7 | |
| 20260504033516 | 54 | 0.0 | 0.0 | 0.00 | 0.00 | 0.00 | 67 | 1013.8 | |
| 20260504032516 | 54 | 0.0 | 0.0 | 0.00 | 0.00 | 0.00 | 68 | 1013.8 | |
| 20260504031516 | 54 | 0.0 | 0.0 | 0.00 | 0.00 | 0.00 | 67 | 1013.8 | |
| 20260504030516 | 54 | 0.0 | 0.0 | 0.00 | 0.00 | 0.00 | 67 | 1013.9 | |
| 20260504025517 | 54 | 0.0 | 0.0 | 0.00 | 0.00 | 0.00 | 67 | 1013.9 |